Location: Mt. Graham
(32.7020°N, 109.8880°W)
Time: 06:16:42
(UTC-07:00)

Hubble Space Telescope - Pass Details

Date: 05 March 2024
Orbit: 513 x 517 km, 28.5° (Epoch: 24 April)

Event Time Altitude Azimuth Distance (km) Brightness Sun altitude
Rises 19:37:47 0° 260° (W) 2,619 5.8 -17.1°
Reaches altitude 10° 19:41:02 10° 233° (SW) 1,732 4.0 -17.7°
Maximum altitude 19:42:58 13° 204° (SSW) 1,539 3.3 -18.1°
Drops below altitude 10° 19:44:54 10° 174° (S) 1,732 3.2 -18.5°
Enters shadow 19:45:22 - 169° (SSE) 1,828 3.3 -18.6°
